Regional Weather Roundup
Issued by NWS

Home | Current Version | Previous Version | Graphics & Text | Print | Product List | Glossary On
Versions: 1 2 3 4 5 6 7 8 9 10 11 12 13 14 15 16 17 18 19 20 21 22 23 24 25 26 27 28 29 30 31 32 33 34 35 36 37 38 39 40 41 42 43 44 45 46 47 48 49 50
000
ASUS43 KMKX 261711
RWRWI

WISCONSIN REGIONAL WEATHER ROUNDUP
NATIONAL WEATHER SERVICE MILWAUKEE/SULLIVAN WI
1200 PM CDT SUN MAR 26 2017

NOTE: "FAIR" INDICATES FEW OR NO CLOUDS BELOW 12,000 FEET WITH NO
SIGNIFICANT WEATHER AND/OR OBSTRUCTIONS TO VISIBILITY.

WIZ001-002-006>008-014>016-023>028-261800-
NORTHWEST WISCONSIN

CITY           SKY/WX    TMP DP  RH WIND       PRES   REMARKS
SUPERIOR ARPT  LGT RAIN  35  35 100 NE7       29.98F WCI  29
ASHLAND        CLOUDY    36  34  92 NE6       29.98S WCI  31
HAYWARD        CLOUDY    39  35  86 N6        29.93F WCI  35
SIREN          CLOUDY    38  36  91 NE5       29.94S WCI  35
CUMBERLAND     CLOUDY    36  34  93 N6        29.92F WCI  31
RICE LAKE      CLOUDY    37  36  96 CALM      29.94F
CHETEK         CLOUDY    37  35  92 NE3       29.92F
LADYSMITH      CLOUDY    38  37  94 N5        29.93F WCI  35
EAU CLAIRE     CLOUDY    38  36  92 NE7       29.91F WCI  33
MENOMONIE      CLOUDY    38  36  92 N5        29.92F WCI  35
NEW RICHMOND   CLOUDY    37  37  98 NE5       29.93F WCI  34
OSCEOLA        CLOUDY    39  39 100 E3        29.96F
$$

WIZ003>005-009-010-017-018-261800-
NORTH CENTRAL WISCONSIN

CITY           SKY/WX    TMP DP  RH WIND       PRES   REMARKS
MANITOWISH WTR CLOUDY    35  35 100 CALM      29.92F FOG
ARBOR VITAE    CLOUDY    37  35  94 CALM      29.91F
WOODRUFF       CLOUDY    37  35  94 CALM      29.91F
RHINELANDER    CLOUDY    36  35  96 E7        29.92F WCI  30
EAGLE RIVER    CLOUDY    34  34 100 E3        29.91F
LAND O LAKES   CLOUDY    35  34  96 CALM      29.93F FOG
PHILLIPS       CLOUDY    36  36 100 CALM      29.91F
TOMAHAWK       DRIZZLE   35  34  94 E5        29.92F WCI  31
MEDFORD        DRIZZLE   36  35  95 E7        29.89F WCI  31
MERRILL        CLOUDY    36  36  99 E6        29.92F WCI  31
$$

WIZ029-030-035-036-043>047-261800-
CENTRAL WISCONSIN

CITY           SKY/WX    TMP DP  RH WIND       PRES   REMARKS
WAUSAU         CLOUDY    36  34  92 E9        29.89F WCI  29
MOSINEE        CLOUDY    36  36 100 E9        29.91F FOG     WCI  29
MARSHFIELD     CLOUDY    36  34  92 E10       29.88F WCI  28
STEVENS POINT  CLOUDY    34  34 100 NE7       29.89F FOG     WCI  28
WAUPACA        CLOUDY    39  38  96 NE6       29.90F FOG     WCI  34
WAUTOMA        LGT RAIN  37  37 100 NE6       29.89F FOG     WCI  32
WISC RAPIDS    CLOUDY    36  36 100 E10       29.90F FOG     WCI  28
CAMP DOUGLAS   CLOUDY    39  37  93 NE5       29.88F FOG
$$

WIZ011>013-019>022-031-037>040-048>050-261800-
NORTHEAST WISCONSIN

CITY           SKY/WX    TMP DP  RH WIND       PRES   REMARKS
ANTIGO         CLOUDY    34  34 100 NE6       29.90F WCI  29
SHAWANO        LGT RAIN  37  35  92 NE6       29.92F WCI  33
OCONTO         CLOUDY    37  36  96 NE7       29.92F WCI  31
STURGEON BAY   LGT RAIN  37  37 100 E8        29.92F FOG     WCI  31
GREEN BAY      LGT RAIN  38  38 100 NE13      29.90F WCI  30
MANITOWOC      LGT RAIN  40  39  97 E7        29.90F FOG
APPLETON       LGT RAIN  37  37 100 NE8       29.87F WCI  31
CLINTONVILLE   LGT RAIN  36  36 100 NE7       29.91F WCI  30
OSHKOSH        LGT RAIN  38  37  97 NE10      29.87F FOG     WCI  31
$$

WIZ032>034-041-042-053>061-261800-
SOUTHWEST WISCONSIN

CITY           SKY/WX    TMP DP  RH WIND       PRES   REMARKS
LA CROSSE      CLOUDY    41  38  89 N7        29.89F
SPARTA         CLOUDY    38  37  99 E6        29.90S FOG     WCI  33
VIROQUA        CLOUDY    38  38 100 NE3       29.86S VSB 1/2
BOSCOBEL       LGT RAIN  43  41  93 VRB5      29.86F
PRAIRIE DU CHI CLOUDY    42  41  97 NW5       29.85F FOG
PLATTEVILLE    CLOUDY    45  45 100 NE6       29.83F VSB 1/4
$$

WIZ056-057-062-063-064-067-068-261800-
SOUTH CENTRAL WISCONSIN

CITY           SKY/WX    TMP DP  RH WIND       PRES   REMARKS
REEDSBURG      DRIZZLE   38  38 100 NE6       29.86F WCI  34
BARABOO/DELLS  DRZL/FOG  38  38  99 NE7       29.86F VSB 1/2 WCI  33
LONE ROCK      CLOUDY    44  40  85 NE7       29.85F
MINERAL POINT  FOG       45  45 100 NE5       29.82F VSB 1/4
MADISON        LGT RAIN  44  42  93 NE7       29.84F FOG
MIDDLETON      CLOUDY    44  44 100 NE5       29.85F
WATERTOWN      RAIN      43  43 100 E3        29.84F
MONROE         FOG       45  45 100 NE5       29.82F VSB 1/2
JANESVILLE     CLOUDY    46  46 100 NE6       29.83F FOG
$$

WIZ051-052-058>065-066-070>072-261800-
SOUTHEAST WISCONSIN

CITY           SKY/WX    TMP DP  RH WIND       PRES   REMARKS
MILWAUKEE      LGT RAIN  42  41  96 N3        29.85F VSB 1/4
WAUKESHA       LGT RAIN  39  39 100 NE6       29.86F FOG     WCI  35
MILWAUKEE/TIMM RAIN      39  37  93 NE6       29.87F FOG     WCI  35
RACINE         LGT RAIN  43  42  97 CALM      29.86F FOG
KENOSHA        LGT RAIN  45  45 100 E5        29.84F FOG
FOND DU LAC    LGT RAIN  41  38  89 NE8       29.86F
SHEBOYGAN      LGT RAIN  40  38  93 NE9       29.87F FOG     WCI  34
WEST BEND      LGT RAIN  41  41 100 E7        29.86F
JUNEAU         LGT RAIN  42  41  97 NE3       29.86F
$$

LSZ147-162-261800-
LAKE SUPERIOR

STATION/POSITION TIME  TEMP    WIND        PRES    WAVE
                       AIR SEA DIR/SP/G            HT/PER
                 (UTC) (F)     (DEG/KT/KT) (MB)    (FT/S)
DEVILS ISLAND    1700   34      40/  7/  7 1016.1F
PORT WING        1630   34      30/  8/ 10 1015.6S
SAXON HARBOR     1640   34     320/  3/  4 1014.9F
$$

LMZ867-665-643>646-261800-
LAKE MICHIGAN

STATION/POSITION TIME  TEMP    WIND        PRES    WAVE
                       AIR SEA DIR/SP/G            HT/PER
                 (UTC) (F)     (DEG/KT/KT) (MB)    (FT/S)
CHAMBERS ISLAND  1640   34      10/  6/  8 1013.5F
NORTHPORT PIER   1640   34      70/ 10/ 12 1014.2F
SISTER BAY       1436   35     110/  9/ 14   N/A
KEWAUNEE LAKESHO 1648   37      30/  7/ 12 1012.3F
SHEBOYGAN LAKESH 1700   37      20/  9/ 10 1012.0F
PORT WASHINGTON  1630   39      30/  9/ 13 1012.9F
MILWAUKEE LAKESH 1650   39      20/  7/  8   N/A
KENOSHA   LAKESH 1700   39      10/  4/  6 1010.8
$$

TC  - TEMPERATURE IN CELSIUS
VSB - VISIBILITY IN STATUTE MILES
WCI - WIND CHILL INDEX
HX  - HEAT INDEX





USA.gov is the U.S. government's official web portal to all federal, state and local government web resources and services.